When you browse on this site, cookies collect data to enhance your experience and personalize the content and advertising you see.
Visit our Privacy Policy to learn more. By continuing to use the site, you agree to this use of cookies and data.
  • In France
  • List of Countries
  • For 7 days
  • Water Temperature
  • Weather Map
  • Weather Widgets
  • user-avatar
    Login

    Hourly Weather Fandeeva

    Today, 24 February, Monday

    Time Temperature Precipitation Wind Pressure Humidity
    00:00 -3°C° 0 mm 4 mps 729 mmHg 88%
    01:00 -3°C° 0 mm 4 mps 729 mmHg 89%
    02:00 -3°C° 0 mm 4 mps 729 mmHg 88%
    03:00 -2°C° 0 mm 3 mps 728 mmHg 88%
    04:00 -2°C° 0 mm 3 mps 728 mmHg 89%
    05:00 -2°C° 0 mm 3 mps 727 mmHg 89%
    06:00 -2°C° 0 mm 3 mps 728 mmHg 88%
    07:00 -2°C° 0 mm 2 mps 728 mmHg 87%
    08:00 -2°C° 0 mm 2 mps 728 mmHg 87%
    09:00 -1°C° 0 mm 2 mps 727 mmHg 84%
    10:00 +2°C° 0 mm 1 mps 727 mmHg 81%
    11:00 +3°C° 0 mm 1 mps 727 mmHg 78%
    12:00 +3°C° 0 mm 1 mps 727 mmHg 77%
    13:00 +3°C° 0 mm 1 mps 727 mmHg 76%
    14:00 +3°C° 0 mm 2 mps 726 mmHg 75%
    15:00 +2°C° 0 mm 2 mps 727 mmHg 78%
    16:00 +1°C° 0 mm 2 mps 727 mmHg 81%
    17:00 -1°C° 0 mm 2 mps 727 mmHg 84%
    18:00 -1°C° 0 mm 2 mps 727 mmHg 84%
    19:00 -1°C° 0 mm 3 mps 728 mmHg 84%
    20:00 -1°C° 0 mm 3 mps 728 mmHg 84%
    21:00 -2°C° 0 mm 4 mps 729 mmHg 84%
    22:00 -2°C° 0 mm 4 mps 729 mmHg 85%
    23:00 -3°C° 0 mm 4 mps 729 mmHg 85%

    Tomorrow, 25 February, Tuesday

    Time Temperature Precipitation Wind Pressure Humidity
    00:00 -4°C° 0 mm 5 mps 730 mmHg 82%
    01:00 -4°C° 0 mm 5 mps 730 mmHg 79%
    02:00 -4°C° 0 mm 6 mps 731 mmHg 76%
    03:00 -5°C° 0 mm 6 mps 731 mmHg 76%
    04:00 -5°C° 0 mm 5 mps 731 mmHg 76%
    05:00 -5°C° 0 mm 5 mps 731 mmHg 76%
    06:00 -5°C° 0 mm 5 mps 732 mmHg 76%
    07:00 -5°C° 0 mm 5 mps 732 mmHg 75%
    08:00 -5°C° 0 mm 5 mps 733 mmHg 75%
    09:00 -4°C° 0 mm 5 mps 733 mmHg 70%
    10:00 -2°C° 0 mm 5 mps 733 mmHg 65%
    11:00 -1°C° 0 mm 5 mps 733 mmHg 60%
    12:00 -1°C° 0 mm 5 mps 733 mmHg 58%
    13:00 0°C° 0 mm 4 mps 733 mmHg 56%
    14:00 0°C° 0 mm 4 mps 733 mmHg 53%
    15:00 -1°C° 0 mm 4 mps 733 mmHg 59%
    16:00 -1°C° 0 mm 3 mps 733 mmHg 64%
    17:00 -1°C° 0 mm 3 mps 733 mmHg 70%
    18:00 -2°C° 0 mm 3 mps 733 mmHg 73%
    19:00 -2°C° 0 mm 3 mps 733 mmHg 76%
    20:00 -3°C° 0 mm 4 mps 733 mmHg 79%
    21:00 -3°C° 0 mm 4 mps 732 mmHg 81%
    22:00 -3°C° 0 mm 4 mps 732 mmHg 83%
    23:00 -4°C° 0 mm 5 mps 731 mmHg 85%

    Day after tomorrow, 26 February, Wednesday

    Time Temperature Precipitation Wind Pressure Humidity
    00:00 -4°C° 0.1 mm 5 mps 731 mmHg 88%
    01:00 -3°C° 0.1 mm 6 mps 730 mmHg 91%
    02:00 -3°C° 0.1 mm 6 mps 730 mmHg 94%
    03:00 -3°C° 0.1 mm 6 mps 729 mmHg 94%
    04:00 -2°C° 0.1 mm 6 mps 729 mmHg 95%
    05:00 -2°C° 0.1 mm 6 mps 728 mmHg 95%
    06:00 -2°C° 0 mm 6 mps 728 mmHg 94%
    07:00 -2°C° 0 mm 6 mps 727 mmHg 94%
    08:00 -1°C° 0 mm 5 mps 727 mmHg 94%
    09:00 -1°C° 0 mm 6 mps 727 mmHg 93%
    10:00 -1°C° 0 mm 6 mps 727 mmHg 93%
    11:00 +1°C° 0 mm 6 mps 727 mmHg 93%
    12:00 +1°C° 0.3 mm 6 mps 727 mmHg 93%
    13:00 -1°C° 0.3 mm 6 mps 727 mmHg 93%
    14:00 -1°C° 0.3 mm 6 mps 727 mmHg 93%
    15:00 -1°C° 0 mm 6 mps 727 mmHg 93%
    16:00 0°C° 0 mm 5 mps 727 mmHg 94%
    17:00 0°C° 0 mm 4 mps 727 mmHg 94%
    18:00 0°C° 0 mm 4 mps 727 mmHg 95%
    19:00 0°C° 0 mm 4 mps 727 mmHg 95%
    20:00 +1°C° 0 mm 3 mps 727 mmHg 96%
    21:00 +1°C° 0.4 mm 3 mps 727 mmHg 96%
    22:00 +1°C° 0.4 mm 3 mps 727 mmHg 97%
    23:00 +2°C° 0.4 mm 2 mps 726 mmHg 98%

    27 February, Thursday

    Time Temperature Precipitation Wind Pressure Humidity
    00:00 +1°C° 0.9 mm 3 mps 726 mmHg 97%
    01:00 +1°C° 0.9 mm 3 mps 726 mmHg 97%
    02:00 +1°C° 0.9 mm 3 mps 726 mmHg 97%
    03:00 0°C° 0.5 mm 4 mps 725 mmHg 97%
    04:00 0°C° 0.5 mm 4 mps 725 mmHg 97%
    05:00 0°C° 0.5 mm 4 mps 724 mmHg 97%
    06:00 0°C° 0.2 mm 4 mps 724 mmHg 96%
    07:00 +1°C° 0.2 mm 5 mps 724 mmHg 96%
    08:00 +1°C° 0.2 mm 5 mps 724 mmHg 96%
    09:00 +1°C° 0.9 mm 5 mps 724 mmHg 96%
    10:00 +1°C° 0.9 mm 5 mps 725 mmHg 96%
    11:00 +1°C° 0.9 mm 4 mps 725 mmHg 96%
    12:00 +1°C° 1.5 mm 4 mps 725 mmHg 96%
    13:00 +2°C° 1.5 mm 3 mps 725 mmHg 97%
    14:00 +2°C° 1.5 mm 3 mps 725 mmHg 97%
    15:00 +2°C° 0.2 mm 3 mps 725 mmHg 97%
    16:00 +2°C° 0.2 mm 3 mps 725 mmHg 97%
    17:00 +3°C° 0.2 mm 2 mps 725 mmHg 97%
    18:00 +2°C° 0 mm 2 mps 726 mmHg 97%
    19:00 +2°C° 0 mm 2 mps 726 mmHg 97%
    20:00 +2°C° 0 mm 2 mps 726 mmHg 97%
    21:00 +2°C° 0 mm 2 mps 726 mmHg 96%
    22:00 +1°C° 0 mm 2 mps 726 mmHg 95%
    23:00 +1°C° 0 mm 2 mps 726 mmHg 95%

    28 February, Friday

    Time Temperature Precipitation Wind Pressure Humidity
    00:00 +1°C° 0 mm 2 mps 726 mmHg 94%
    01:00 +1°C° 0 mm 1 mps 726 mmHg 94%
    02:00 +1°C° 0 mm 1 mps 726 mmHg 94%
    03:00 -1°C° 0 mm 2 mps 725 mmHg 94%
    04:00 -1°C° 0 mm 2 mps 725 mmHg 94%
    05:00 -1°C° 0 mm 2 mps 724 mmHg 94%
    06:00 -1°C° 1.1 mm 3 mps 724 mmHg 95%
    07:00 -2°C° 1.1 mm 4 mps 724 mmHg 96%
    08:00 -2°C° 1.1 mm 5 mps 723 mmHg 97%
    09:00 -4°C° 1.1 mm 5 mps 723 mmHg 96%
    10:00 -4°C° 1.1 mm 6 mps 723 mmHg 96%
    11:00 -4°C° 1.1 mm 6 mps 722 mmHg 96%
    12:00 -4°C° 1 mm 7 mps 722 mmHg 95%
    13:00 -6°C° 1 mm 7 mps 723 mmHg 95%
    14:00 -6°C° 1 mm 8 mps 723 mmHg 94%
    15:00 -6°C° 0.2 mm 7 mps 723 mmHg 90%
    16:00 -6°C° 0.2 mm 6 mps 724 mmHg 87%
    17:00 -6°C° 0.2 mm 5 mps 725 mmHg 83%
    18:00 -7°C° 0 mm 5 mps 725 mmHg 83%
    19:00 -7°C° 0 mm 5 mps 726 mmHg 82%
    20:00 -9°C° 0 mm 6 mps 727 mmHg 82%
    21:00 -8°C° 0 mm 5 mps 727 mmHg 82%
    22:00 -10°C° 0 mm 5 mps 728 mmHg 82%
    23:00 -10°C° 0 mm 5 mps 728 mmHg 83%

    29 February, Saturday

    Time Temperature Precipitation Wind Pressure Humidity
    00:00 -10°C° 0 mm 5 mps 728 mmHg 81%
    01:00 -10°C° 0 mm 6 mps 728 mmHg 80%
    02:00 -10°C° 0 mm 6 mps 729 mmHg 78%
    03:00 -10°C° 0 mm 6 mps 729 mmHg 79%
    04:00 -10°C° 0 mm 5 mps 729 mmHg 79%
    05:00 -11°C° 0 mm 5 mps 729 mmHg 80%
    06:00 -10°C° 0 mm 6 mps 729 mmHg 80%
    07:00 -10°C° 0 mm 6 mps 730 mmHg 80%
    08:00 -10°C° 0 mm 6 mps 730 mmHg 80%
    09:00 -9°C° 0 mm 6 mps 730 mmHg 78%
    10:00 -8°C° 0 mm 6 mps 730 mmHg 76%
    11:00 -8°C° 0 mm 6 mps 730 mmHg 74%
    12:00 -8°C° 0 mm 6 mps 730 mmHg 75%
    13:00 -6°C° 0 mm 6 mps 731 mmHg 75%
    14:00 -6°C° 0 mm 6 mps 731 mmHg 76%
    15:00 -7°C° 0 mm 5 mps 731 mmHg 80%
    16:00 -7°C° 0 mm 5 mps 731 mmHg 84%
    17:00 -7°C° 0 mm 4 mps 732 mmHg 88%
    18:00 -8°C° 0 mm 4 mps 732 mmHg 88%
    19:00 -8°C° 0 mm 4 mps 732 mmHg 89%
    20:00 -8°C° 0 mm 4 mps 733 mmHg 89%
    21:00 -8°C° 0 mm 4 mps 733 mmHg 88%
    22:00 -8°C° 0 mm 3 mps 734 mmHg 86%
    23:00 -8°C° 0 mm 3 mps 734 mmHg 85%
    Show more